Total_Precipitation_Accumulation
1.01 0.66 0.65 0.61 0.80 0.55 0.42 0.31 0.23 0.47 0.40 0.21 0.37 0.22 0.46 0.58 0.56 0.98 0.77 0.70 0.57 0.79 0.79 0.70 0.80 0.52 0.48 0.47 0.43 0.33 0.29 0.24 0.30 0.53 0.58 0.66 0.72 0.86 0.62 0.46 0.32 0.34 0.48 0.64 0.86 1.40 1.39 2.09 2.43 1.00 0.84 1.03 1.32 1.12 1.53 1.44 1.22 1.15 1.22 2.33 2.61 1.49 1.33 2.25 2.61 2.87 2.79 2.59 2.17 1.40 1.18 1.13 1.15 1.90 1.67 1.71 1.70 1.85 1.63 1.47 1.21 1.16 1.22 0.84 0.43 0.66 0.57
0.77 0.76 0.54 0.54 0.47 0.46 0.43 0.27 0.26 0.38 0.26 0.35 0.27 0.25 0.29 0.43 0.43 0.41 0.43 0.37 0.35 0.50 0.64 0.63 0.73 0.51 0.38 0.35 0.26 0.21 0.14 0.18 0.21 0.26 0.25 0.52 0.48 0.34 0.33 0.40 0.41 0.37 0.26 0.32 0.47 1.13 1.55 1.19 1.44 0.62 1.03 1.19 0.63 1.23 1.33 1.52 1.05 1.47 2.98 1.99 1.20 1.82 2.41 1.98 1.95 2.03 1.98 2.05 1.63 1.16 0.82 0.69 0.48 0.82 1.42 0.76 0.98 1.38 1.17 0.90 0.64 1.01 1.17 1.31 1.14 0.77 0.64
0.83 1.01 0.92 0.54 0.33 0.40 0.53 0.24 0.30 0.28 0.26 0.32 0.29 0.24 0.22 0.18 0.37 0.36 0.23 0.25 0.43 0.72 0.43 0.57 0.79 0.46 0.23 0.29 0.50 0.21 0.19 0.22 0.20 0.22 0.23 0.29 0.35 0.42 0.32 0.36 0.39 0.42 0.39 0.26 0.27 0.47 0.81 0.87 0.91 0.66 0.49 1.24 0.66 0.84 1.41 1.26 0.96 1.05 1.35 1.76 2.25 2.54 2.91 2.03 1.78 1.44 1.27 1.02 1.20 1.17 0.72 0.55 0.57 0.62 1.12 1.12 1.36 0.91 1.17 1.01 0.99 1.11 0.67 0.67 0.72 0.96 0.67
0.79 0.73 0.85 1.42 0.76 0.51 0.69 0.85 0.58 0.52 0.29 0.49 0.48 0.45 0.52 0.51 0.71 0.90 0.64 0.55 0.85 0.78 0.37 0.84 0.56 0.54 0.41 0.48 0.61 0.70 0.69 0.55 0.62 0.56 0.52 0.31 0.26 0.31 0.46 0.47 0.48 0.57 0.48 0.43 0.47 0.34 0.43 0.53 0.70 0.75 0.65 0.99 0.93 0.83 1.10 1.24 1.96 2.67 1.53 2.08 2.11 2.06 1.60 1.97 2.82 2.29 2.15 1.81 1.67 1.50 0.97 0.74 1.54 1.08 1.06 1.58 1.17 0.87 0.79 0.70 0.97 0.95 0.95 0.84 0.83 0.82 0.81
0.64 0.83 0.70 0.94 0.86 0.88 1.10 0.84 0.63 0.49 0.53 0.48 0.50 0.34 0.29 0.63 0.80 1.00 0.96 1.20 0.79 0.62 0.52 0.58 0.77 0.62 0.66 0.92 0.68 0.99 0.76 0.57 0.58 0.53 0.40 0.32 0.31 0.32 0.21 0.32 0.35 0.45 0.51 0.52 0.52 0.54 0.46 0.39 0.56 0.92 1.12 1.56 1.28 1.12 0.87 0.92 1.17 1.48 1.38 2.10 2.43 2.12 2.66 2.46 2.83 2.29 2.15 1.64 2.02 1.45 1.67 0.87 1.32 3.14 2.33 1.72 1.23 0.99 0.69 0.64 0.89 0.81 0.31 0.69 1.13 1.07 0.85
0.87 0.67 0.90 0.90 1.14 1.28 1.32 0.98 0.37 0.37 0.58 0.60 0.82 0.67 0.53 0.46 0.44 0.90 1.02 1.09 0.75 0.52 0.69 0.65 0.66 0.95 0.99 0.80 0.97 0.87 0.96 0.86 0.64 0.63 0.55 0.28 0.21 0.31 0.33 1.04 0.52 0.37 0.46 0.36 0.42 0.51 0.55 0.57 0.60 0.70 0.76 0.87 1.19 1.14 1.57 1.29 0.81 1.22 1.59 1.42 1.58 1.81 1.91 1.69 1.80 1.94 2.04 2.64 2.04 1.78 1.52 1.23 1.61 1.45 1.32 1.45 2.26 1.49 1.45 1.49 0.85 1.08 1.17 0.89 0.69 1.10 0.95
0.70 0.91 1.13 1.19 1.56 1.45 1.00 0.62 1.15 0.37 0.58 0.40 0.66 0.61 0.49 0.57 0.71 0.93 0.70 0.74 0.70 0.72 0.59 0.69 0.72 0.81 0.72 0.96 0.99 0.84 0.90 0.81 0.63 0.54 0.59 0.58 0.64 0.52 0.41 0.55 0.79 0.56 0.68 0.60 0.66 0.85 0.64 0.55 0.52 0.61 0.76 0.79 1.00 1.01 0.93 1.04 1.24 1.29 1.33 1.57 1.30 1.26 1.57 1.86 1.65 1.49 1.80 1.85 2.42 2.04 1.95 1.97 2.29 2.65 1.59 2.10 1.65 1.30 1.64 1.16 1.41 1.76 1.52 1.51 1.59 1.40 1.06
0.85 1.02 1.38 1.27 0.95 1.31 1.17 1.35 1.24 0.97 1.02 0.94 0.72 0.71 0.52 0.65 0.93 0.90 0.98 0.92 0.69 0.62 0.67 0.57 0.65 0.61 1.13 0.54 0.56 0.66 0.66 0.53 0.52 0.51 0.40 0.45 0.41 0.53 0.44 0.53 0.75 0.98 0.75 1.04 1.40 1.21 0.92 0.86 0.96 0.78 0.66 0.73 0.77 1.07 0.93 0.95 1.20 1.32 1.64 1.61 1.41 1.24 1.28 1.42 1.75 1.85 2.05 1.89 2.14 2.53 2.03 2.06 2.26 2.06 2.06 2.23 1.81 2.19 1.61 1.47 1.27 1.54 1.29 1.22 0.93 1.03 1.38
0.90 0.97 1.09 1.16 1.53 1.19 1.01 1.10 1.18 1.14 1.46 1.05 0.95 0.95 0.67 0.60 0.93 0.99 1.36 1.27 1.06 0.62 0.55 0.67 0.78 0.76 0.50 0.58 0.83 0.90 0.83 0.65 0.60 0.54 0.47 0.35 0.38 0.35 0.51 0.70 0.55 0.41 0.67 0.94 1.03 1.06 1.01 1.28 0.95 1.01 0.88 0.88 0.73 0.65 1.06 0.99 0.80 0.92 1.09 1.54 1.95 2.07 1.74 1.40 1.45 1.37 1.71 1.79 2.69 2.32 2.60 1.68 1.88 2.09 2.51 2.04 1.96 1.70 2.03 2.21 1.77 1.71 1.63 1.50 1.62 1.23 2.05
0.36 1.13 1.15 1.20 1.41 1.26 1.52 1.21 1.12 0.66 1.01 0.68 0.91 0.82 0.64 0.53 0.89 1.00 1.41 1.43 1.55 1.24 0.86 0.79 0.89 0.76 0.65 0.76 1.05 1.29 1.20 1.01 0.77 0.53 0.37 0.31 0.36 0.48 0.64 0.45 0.54 0.90 1.27 1.20 0.91 1.11 1.08 0.81 1.00 1.11 1.07 1.06 0.84 1.04 1.14 1.19 1.65 1.48 0.93 1.07 1.27 1.79 1.90 2.01 2.06 1.60 1.54 1.92 1.30 1.86 2.00 2.23 1.64 1.54 2.04 2.00 2.26 2.01 1.97 1.72 1.75 1.70 1.52 1.83 1.67 1.51 1.44
0.39 0.58 1.09 1.26 1.19 1.35 1.31 1.44 1.10 0.83 0.57 0.57 0.97 0.66 1.03 0.92 0.84 1.00 1.28 1.19 1.11 1.21 1.24 1.16 1.05 1.28 1.23 1.23 1.48 1.60 1.49 1.07 0.81 0.60 0.41 0.40 0.28 0.25 0.32 0.34 0.40 0.37 0.38 0.44 0.59 0.65 0.70 0.75 0.54 0.41 0.49 0.52 0.56 0.64 0.54 0.73 0.83 0.86 1.05 1.52 1.37 1.52 1.68 1.93 1.87 1.91 1.94 2.35 1.89 1.56 2.13 1.98 1.60 1.40 1.24 1.37 1.70 1.99 1.79 1.82 2.19 3.08 2.96 1.47 1.30 1.32 1.58
0.37 0.55 0.67 1.45 1.27 1.35 1.18 1.22 1.08 0.71 0.53 0.79 1.05 0.84 1.08 1.11 1.11 1.25 1.63 1.30 1.07 1.29 1.55 1.79 1.67 1.67 2.67 1.98 1.83 1.47 0.94 0.95 0.98 0.74 0.48 0.45 0.43 0.49 0.51 0.33 0.39 0.35 0.30 0.23 0.21 0.25 0.34 0.31 0.19 0.31 0.22 0.20 0.19 0.22 0.18 0.23 0.37 0.37 0.38 0.43 0.57 1.01 1.31 1.67 1.97 1.89 1.73 2.45 2.68 2.87 3.41 3.90 3.03 2.97 2.58 2.03 1.52 1.95 2.33 2.21 2.88 2.84 1.62 2.08 1.82 1.37 1.22
0.72 0.34 0.49 0.66 0.92 0.78 0.96 1.02 0.95 0.64 0.29 0.56 0.76 1.65 2.26 1.38 1.41 1.55 1.70 1.25 1.31 1.30 1.32 1.90 2.35 1.96 2.31 2.17 1.51 1.03 0.88 0.74 0.73 0.75 0.72 0.67 0.53 0.57 0.72 0.90 0.56 0.45 0.38 0.35 0.34 0.31 0.26 0.16 0.11 0.15 0.20 0.18 0.15 0.16 0.26 0.22 0.25 0.24 0.33 0.44 0.65 0.53 0.59 0.82 1.32 1.81 1.89 1.95 1.93 1.82 2.50 3.89 2.99 2.34 2.57 2.62 2.22 2.03 2.96 2.89 1.98 2.40 2.48 1.92 1.39 1.71 1.71
0.86 0.71 0.89 0.91 0.97 1.28 1.15 1.19 1.10 1.07 0.74 1.37 1.81 1.70 1.30 1.36 1.09 1.15 1.41 1.35 1.67 1.47 2.04 1.52 1.52 1.65 1.73 1.59 1.20 1.03 1.14 1.02 0.92 0.82 1.06 0.87 0.88 1.09 0.95 1.08 0.94 0.80 0.59 0.48 0.41 0.30 0.25 0.21 0.14 0.11 0.12 0.19 0.13 0.20 0.16 0.14 0.17 0.26 0.33 0.19 0.18 0.26 0.39 0.47 0.56 0.81 1.36 2.18 2.07 2.39 2.63 3.14 2.46 1.96 1.92 2.02 1.95 2.73 2.80 1.88 2.29 2.66 2.46 2.28 2.70 1.99 1.55
0.55 0.70 0.94 1.39 1.78 2.04 1.04 1.65 1.74 1.99 2.10 1.92 1.70 1.17 0.97 0.83 0.95 1.01 1.08 1.46 1.71 1.39 1.45 1.17 1.06 1.19 1.10 1.20 1.23 0.99 1.18 1.29 1.32 1.12 1.28 1.32 1.45 1.23 1.56 1.11 1.02 0.87 1.17 0.84 0.64 0.58 0.46 0.33 0.21 0.19 0.17 0.17 0.12 0.11 0.16 0.14 0.15 0.16 0.19 0.22 0.15 0.15 0.19 0.37 0.86 0.93 0.80 2.00 2.22 2.81 2.51 1.87 1.75 2.04 1.85 1.71 1.83 1.80 1.78 1.67 1.64 1.76 1.97 1.62 1.55 1.48 1.64
1.19 1.00 1.19 1.72 1.59 1.59 1.68 1.82 2.50 2.72 2.35 1.66 1.44 1.11 1.45 0.98 1.04 1.12 1.12 1.52 1.24 1.61 1.71 1.55 1.36 1.00 1.02 0.96 1.14 0.87 0.92 1.15 1.11 1.20 1.14 1.24 1.69 1.23 1.22 1.51 1.31 1.28 1.32 0.93 0.72 1.12 0.87 0.72 0.49 0.49 0.38 0.33 0.22 0.13 0.15 0.15 0.15 0.16 0.14 0.15 0.62 0.89 0.92 0.88 0.80 1.12 1.29 1.21 0.92 1.09 1.89 3.28 2.25 1.73 1.69 1.95 1.75 1.67 1.63 1.73 1.74 1.60 1.59 1.61 1.66 1.71 1.90
1.17 1.08 1.02 0.84 0.80 0.98 1.36 1.73 1.86 2.17 1.94 1.58 1.18 0.88 1.37 1.75 1.60 0.84 1.00 1.10 1.23 1.27 0.93 0.90 1.04 1.25 1.00 1.04 0.92 0.65 0.69 1.25 1.12 1.20 1.21 1.14 1.53 1.53 1.45 1.43 1.58 1.63 1.46 1.30 1.25 1.23 1.56 1.10 0.96 0.78 0.83 0.68 0.42 0.36 0.33 0.41 0.42 0.45 0.81 0.84 0.93 0.81 0.74 0.71 0.56 0.48 0.55 0.43 0.39 0.33 0.55 1.06 2.03 1.39 1.73 1.97 2.15 2.30 2.09 2.03 2.00 2.00 2.10 1.76 1.76 1.82 1.48
0.34 0.74 0.68 0.67 0.77 0.63 0.85 1.18 1.47 1.89 1.68 1.57 1.05 0.76 1.02 0.90 1.16 1.04 0.97 1.07 0.91 1.08 0.98 0.80 0.65 0.75 1.10 0.94 0.53 0.70 0.97 1.16 1.02 1.13 1.33 1.56 1.42 1.06 1.29 1.71 1.72 1.94 1.95 1.93 1.58 1.31 1.35 1.55 1.98 1.21 1.57 1.08 1.33 1.34 1.47 1.26 1.26 1.27 1.41 1.21 1.03 0.89 0.81 0.77 0.86 1.17 1.03 0.75 0.32 0.61 0.84 0.79 1.77 1.46 0.89 1.61 1.87 1.95 2.09 1.88 1.70 1.77 2.08 1.92 1.97 1.89 2.05
0.26 0.63 0.52 0.49 0.49 0.65 0.67 0.85 1.25 1.48 1.74 1.90 1.86 1.47 1.06 0.87 0.84 0.98 0.84 0.81 0.80 0.91 0.75 0.79 0.76 0.72 0.90 0.81 0.59 0.88 0.90 0.85 0.95 1.16 1.56 1.65 1.77 1.80 1.68 2.12 2.01 1.80 2.29 3.15 3.59 3.34 2.79 2.53 3.06 2.99 1.97 2.03 1.84 1.90 2.06 1.55 1.90 1.95 1.49 1.29 1.23 1.07 0.93 0.74 0.88 1.01 0.92 1.08 1.49 1.45 1.00 1.38 1.59 2.33 1.26 1.15 1.19 1.21 1.17 1.37 1.57 1.53 1.54 1.54 1.59 1.56 1.85
0.40 0.59 0.53 0.47 0.28 0.78 0.59 0.69 1.23 1.12 0.94 1.14 1.56 1.35 1.04 0.92 0.78 0.71 0.97 0.74 0.99 0.80 0.91 0.81 0.87 0.81 0.71 0.75 0.97 0.68 1.08 1.20 1.34 1.58 1.92 2.05 1.68 1.85 1.90 1.51 1.73 1.90 1.98 2.44 3.05 3.48 3.22 3.43 3.29 3.72 4.18 3.64 3.37 2.46 2.18 1.72 1.69 2.01 1.81 1.56 1.54 1.25 1.39 1.05 0.98 0.99 1.01 0.86 0.80 0.88 1.00 0.93 1.11 2.09 1.25 1.30 1.34 1.22 1.46 1.31 1.26 1.24 1.09 1.29 1.46 1.59 1.81
0.35 0.13 0.19 0.38 0.47 0.27 0.33 0.32 0.76 0.75 0.73 0.87 1.40 1.33 0.93 1.33 0.87 0.55 0.45 0.66 0.81 1.04 1.00 0.59 0.53 0.82 0.93 0.71 0.77 0.81 1.08 1.12 1.51 1.65 1.89 2.07 2.19 1.50 2.03 2.11 1.52 1.49 1.84 2.17 2.54 2.68 3.13 2.70 2.79 2.97 3.46 3.82 4.42 3.24 3.12 2.15 1.49 0.83 1.07 1.08 1.01 1.36 1.34 1.38 1.53 1.72 1.68 1.88 1.65 0.98 0.57 0.88 1.25 1.51 1.57 0.68 0.77 1.16 1.84 2.90 2.34 2.15 1.68 1.12 0.99 1.11 1.59
0.37 0.46 0.56 0.23 0.69 0.42 0.64 0.63 0.52 0.58 0.75 0.82 0.97 1.01 0.96 0.93 1.19 0.59 0.54 0.76 0.92 1.50 1.53 1.14 0.68 0.57 0.98 1.23 1.28 1.18 0.80 1.27 1.66 1.75 1.38 1.25 1.43 1.68 1.61 1.37 1.24 1.41 1.48 1.73 2.14 2.43 2.27 2.01 1.70 1.95 2.43 2.49 3.02 3.69 3.55 3.43 2.29 1.88 1.64 2.08 2.01 1.59 1.21 1.02 0.70 1.12 1.21 1.06 0.59 0.51 0.45 0.64 0.53 0.82 0.77 0.58 0.70 0.75 1.21 1.28 0.61 0.46 0.84 1.61 1.33 1.41 0.81
0.41 0.31 0.33 0.60 0.71 0.84 0.62 0.35 0.60 0.47 0.54 0.67 0.79 0.84 0.57 0.70 1.17 0.95 0.88 1.01 1.25 0.93 1.29 1.28 1.89 1.48 1.56 1.62 1.56 1.43 1.37 1.83 1.97 1.56 1.79 2.00 1.87 1.32 1.18 1.32 1.37 1.71 1.22 1.12 1.28 1.45 1.34 1.38 1.68 1.79 1.82 2.04 2.39 2.32 2.23 3.74 4.02 3.96 3.93 3.79 2.88 2.32 1.61 1.40 1.63 1.42 1.32 0.91 1.11 1.50 1.04 1.25 1.40 0.61 0.66 0.82 1.02 1.26 0.58 1.43 1.61 0.90 0.58 1.01 0.76 0.60 1.23
0.16 0.35 0.51 0.78 0.49 0.44 0.29 0.34 0.40 0.60 0.57 0.75 0.79 0.77 0.61 0.56 0.77 0.90 0.77 0.44 0.62 0.86 1.24 0.68 0.82 1.01 1.91 1.50 1.35 1.34 1.22 0.81 1.42 2.02 1.94 2.31 1.96 2.19 1.91 1.44 1.48 1.67 1.41 1.29 1.54 1.72 1.60 1.30 0.95 1.05 1.32 1.43 1.61 1.81 1.58 1.81 2.70 4.25 4.04 3.93 3.68 3.13 2.69 1.89 1.90 2.09 1.65 1.65 1.58 1.12 1.10 1.25 1.44 1.29 0.83 1.10 1.19 0.89 0.99 1.11 1.15 0.69 0.86 0.62 0.76 0.95 0.66
0.32 0.05 0.15 0.24 0.66 0.33 0.19 0.43 0.48 0.51 0.31 0.68 0.61 0.82 0.75 0.80 0.63 0.93 0.64 0.45 0.37 0.51 0.46 0.58 0.74 0.84 0.93 0.96 0.64 0.77 0.83 0.75 0.76 1.63 1.55 1.34 1.21 1.27 1.18 1.12 0.99 0.90 0.92 1.13 1.16 0.93 1.08 1.00 0.99 0.90 1.25 1.12 1.14 1.10 1.01 0.91 0.92 1.28 1.83 3.00 2.76 3.73 3.95 3.34 3.34 2.78 1.26 1.67 2.41 2.79 2.49 1.61 1.31 1.19 1.29 1.10 1.33 1.46 1.90 1.69 1.50 1.31 1.24 0.93 1.08 1.83 1.92
0.07 0.05 0.16 0.31 0.80 0.30 0.16 0.27 0.34 0.18 0.31 0.47 0.74 0.76 0.70 0.65 0.55 0.46 0.48 0.55 0.41 0.44 0.41 0.16 0.25 0.23 0.19 0.24 0.60 0.96 1.04 0.57 0.57 0.83 1.43 1.55 1.13 1.00 1.11 1.15 1.07 0.91 0.91 0.99 1.02 0.87 0.90 0.94 0.77 0.52 0.51 0.66 0.82 1.01 0.99 1.08 0.89 0.96 1.21 1.21 1.91 2.11 2.65 2.30 1.21 1.62 2.21 1.47 1.80 1.89 2.34 2.17 2.34 2.06 1.87 1.63 1.86 1.54 2.70 1.98 1.99 1.75 1.37 1.02 0.75 0.62 0.67
0.06 0.08 0.10 0.15 0.27 0.10 0.12 0.35 0.37 0.18 0.21 0.38 0.48 0.51 0.50 0.43 0.21 0.39 0.50 0.31 0.23 0.38 0.21 0.14 0.13 0.16 0.09 0.07 0.23 0.18 0.45 0.26 0.16 0.13 0.24 0.51 1.08 1.27 1.03 0.60 0.98 1.02 0.65 0.79 1.04 0.88 0.80 0.71 0.72 0.73 0.84 0.78 0.54 0.67 0.77 0.83 0.83 0.94 0.98 1.10 1.35 1.98 1.62 2.03 2.62 2.00 1.75 1.50 1.42 1.89 1.72 1.62 1.31 1.13 1.26 1.46 1.76 1.49 1.40 2.20 2.80 3.27 3.70 2.35 1.64 1.69 1.61
0.12 0.06 0.12 0.28 0.39 0.34 0.18 0.07 0.10 0.29 0.19 0.15 0.13 0.31 0.32 0.32 0.28 0.31 0.29 0.07 0.07 0.10 0.19 0.19 0.19 0.03 0.03 0.12 0.69 0.12 0.07 0.10 0.21 0.32 0.29 0.27 0.16 0.49 0.94 0.68 0.93 0.91 0.84 0.72 0.84 0.97 0.81 0.93 0.66 0.63 0.91 0.77 0.57 0.71 0.91 1.27 1.30 1.77 1.79 1.39 1.16 0.95 0.74 1.32 1.90 2.07 2.15 1.86 1.80 1.95 1.97 1.73 1.58 1.39 1.09 1.08 1.53 2.02 2.17 2.30 1.92 1.89 2.18 2.53 2.68 2.22 1.62
0.06 0.13 0.12 0.19 0.33 0.20 0.51 1.34 1.36 0.90 0.35 0.26 0.12 0.17 0.26 0.32 0.27 0.17 0.10 0.06 0.01 0.02 0.02 0.01 0.02 0.02 0.01 0.03 0.06 0.10 0.09 0.15 0.21 0.22 0.18 0.19 0.14 0.13 0.13 0.34 0.48 0.51 0.67 0.52 0.52 0.52 0.68 0.79 0.81 0.63 0.56 0.79 0.91 0.90 1.41 1.57 1.76 1.82 1.45 1.39 1.40 1.45 1.52 1.30 1.06 1.28 1.36 1.42 1.70 1.51 1.40 1.42 1.19 1.15 1.37 1.54 1.56 1.13 0.80 0.76 1.07 1.63 1.53 1.40 1.29 1.47 1.17
0.33 0.07 0.09 0.14 0.04 0.05 0.01 0.04 0.04 0.05 0.06 0.02 0.04 0.06 0.03 0.14 0.41 0.07 0.02 0.05 0.01 0.01 0.02 0.04 0.02 0.05 0.08 0.06 0.05 0.06 0.11 0.23 0.23 0.30 0.22 0.09 0.11 0.16 0.13 0.13 0.16 0.36 0.51 0.54 0.57 0.81 0.75 0.53 0.58 0.73 0.61 0.53 0.52 0.50 0.53 0.70 1.14 1.33 1.51 1.21 0.80 1.22 1.31 1.16 0.97 0.86 0.91 1.30 1.46 1.28 0.94 0.92 0.99 1.40 1.25 1.22 1.31 1.38 1.10 1.17 0.83 0.98 1.47 1.29 1.06 0.93 1.00
0.11 0.27 0.15 0.06 0.06 0.02 0.01 0.03 0.02 0.04 0.06 0.03 0.01 0.04 0.01 0.03 0.17 0.45 0.02 0.01 0.01 0.01 0.05 0.05 0.05 0.06 0.09 0.12 0.09 0.12 0.10 0.10 0.30 0.29 0.26 0.14 0.13 0.12 0.14 0.15 0.30 0.40 0.40 0.57 0.55 0.61 0.72 0.73 0.65 0.58 0.63 0.71 0.60 0.69 1.18 1.48 1.05 0.82 0.56 0.71 1.42 1.15 1.15 1.25 1.02 0.78 0.74 0.72 0.76 0.99 1.10 1.09 1.09 0.93 0.98 0.86 0.84 0.87 1.21 1.14 0.86 1.08 1.30 0.93 0.85 0.82 0.80
0.20 0.39 0.15 0.08 0.12 0.08 0.03 0.01 0.03 0.07 0.04 0.02 0.03 0.06 0.04 0.03 0.03 0.03 0.01 0.01 0.03 0.03 0.06 0.09 0.09 0.09 0.11 0.15 0.26 0.15 0.12 0.14 0.27 0.37 0.20 0.20 0.21 0.19 0.20 0.23 0.26 0.38 0.52 0.76 0.78 0.50 0.41 0.45 0.45 0.56 0.53 0.58 0.87 0.47 0.46 0.65 0.46 0.51 0.54 0.43 0.52 0.94 0.95 0.92 1.06 0.96 1.36 1.00 0.79 0.81 0.78 0.95 1.14 1.18 1.20 1.08 1.28 1.03 1.00 0.78 0.88 0.93 1.09 1.21 1.23 1.18 1.29
0.16 0.15 0.15 0.20 0.17 0.10 0.16 0.12 0.06 0.11 0.06 0.05 0.09 0.10 0.03 0.01 0.07 0.02 0.02 0.02 0.04 0.04 0.07 0.09 0.11 0.14 0.18 0.28 0.27 0.16 0.12 0.12 0.11 0.17 0.17 0.26 0.31 0.38 0.61 0.44 0.48 0.82 0.57 0.40 0.47 1.32 1.86 1.07 1.33 1.05 0.75 1.11 1.37 0.85 0.68 1.03 0.57 0.46 0.45 0.44 0.64 0.67 0.68 0.60 0.72 0.95 1.13 1.24 1.07 0.96 0.99 1.00 1.25 1.15 1.41 1.13 1.36 1.73 1.51 1.19 1.17 1.06 1.01 1.17 1.28 1.32 1.12
0.07 0.14 0.22 0.20 0.26 0.31 0.42 0.50 0.12 0.24 0.13 0.06 0.09 0.07 0.07 0.07 0.04 0.05 0.01 0.02 0.03 0.05 0.06 0.11 0.15 0.18 0.20 0.24 0.17 0.11 0.11 0.14 0.23 0.21 0.22 0.32 0.35 0.31 0.30 0.34 0.32 0.31 0.32 0.50 0.43 0.50 0.47 0.48 0.38 0.43 0.47 0.53 0.53 0.36 0.62 0.63 0.54 0.54 0.67 0.95 0.95 1.14 1.45 1.55 1.15 0.97 0.68 0.81 1.11 0.95 0.99 0.79 0.86 0.95 0.86 1.16 1.07 1.08 1.27 1.31 1.13 1.40 1.50 1.65 1.84 1.39 1.19
0.07 0.02 0.10 0.11 0.06 0.06 0.13 0.05 0.05 0.15 0.22 0.17 0.07 0.19 0.08 0.03 0.01 0.01 0.00 0.01 0.02 0.05 0.05 0.11 0.14 0.17 0.21 0.22 0.20 0.13 0.11 0.12 0.15 0.19 0.28 0.35 0.35 0.33 0.33 0.25 0.13 0.12 0.12 0.14 0.29 0.52 0.53 0.36 0.20 0.22 0.28 0.30 0.25 0.27 0.38 1.06 1.36 1.11 0.84 0.53 0.51 0.85 1.48 1.24 1.43 1.06 0.76 0.73 0.65 0.68 0.88 0.93 0.88 0.93 0.91 1.11 1.15 1.23 1.02 1.28 1.19 1.10 1.40 1.47 1.26 1.21 1.73
0.05 0.11 0.09 0.06 0.03 0.09 0.07 0.11 0.13 0.04 0.07 0.07 0.05 0.07 0.03 0.03 0.01 0.01 0.02 0.03 0.01 0.02 0.04 0.06 0.08 0.10 0.15 0.21 0.32 0.27 0.20 0.18 0.17 0.20 0.28 0.36 0.42 0.43 0.33 0.18 0.11 0.11 0.09 0.06 0.08 0.11 0.07 0.45 0.42 0.22 0.24 0.32 0.39 0.27 0.20 0.25 0.48 0.62 0.54 0.54 0.57 0.64 0.70 0.68 0.61 0.85 0.80 0.66 0.57 0.46 0.48 0.45 0.75 0.70 0.70 1.11 0.79 0.86 1.28 1.08 1.18 1.23 1.18 1.19 1.60 1.33 1.32
0.05 0.12 0.10 0.07 0.01 0.01 0.05 0.09 0.07 0.02 0.03 0.04 0.03 0.03 0.06 0.03 0.02 0.02 0.00 0.01 0.01 0.01 0.02 0.04 0.06 0.09 0.16 0.15 0.23 0.35 0.37 0.30 0.23 0.29 0.37 0.42 0.41 0.33 0.22 0.16 0.11 0.13 0.08 0.16 0.12 0.12 0.13 0.13 0.09 0.20 0.78 0.57 0.48 0.86 0.88 0.17 0.15 0.29 0.48 0.46 0.44 0.43 0.48 0.51 0.41 0.60 0.59 0.79 0.74 0.66 0.57 0.49 0.36 0.33 0.52 0.52 0.68 0.66 0.70 1.30 1.03 0.99 1.15 1.26 1.39 1.33 1.27
0.00 0.02 0.05 0.03 0.02 0.02 0.04 0.11 0.10 0.05 0.03 0.07 0.22 0.19 0.11 0.04 0.04 0.02 0.03 0.01 0.02 0.01 0.00 0.02 0.03 0.07 0.13 0.16 0.13 0.24 0.50 0.57 0.48 0.43 0.40 0.39 0.34 0.22 0.16 0.13 0.13 0.12 0.18 0.30 0.21 0.16 0.13 0.06 0.11 0.14 0.32 0.13 0.20 0.41 0.39 0.15 0.13 0.15 0.18 0.26 0.33 0.27 0.18 0.29 0.32 0.34 0.41 0.45 0.50 0.57 0.61 0.59 0.53 0.45 0.36 0.35 0.40 0.46 0.63 0.79 1.08 1.10 1.41 1.07 1.26 1.29 1.31
0.01 0.02 0.03 0.02 0.03 0.02 0.02 0.04 0.03 0.01 0.01 0.04 0.03 0.01 0.02 0.02 0.00 0.00 0.04 0.02 0.01 0.00 0.00 0.01 0.00 0.02 0.04 0.09 0.11 0.09 0.22 0.59 0.71 0.42 0.32 0.29 0.17 0.08 0.07 0.11 0.10 0.09 0.18 0.15 0.14 0.16 0.12 0.07 0.03 0.05 0.13 0.15 0.08 0.15 0.08 0.07 0.20 0.56 0.77 0.33 0.33 0.21 0.15 0.10 0.35 0.27 0.41 0.32 0.48 0.92 0.80 0.93 0.81 0.82 0.94 0.84 0.70 0.66 0.59 0.62 0.56 0.59 0.55 0.59 0.74 0.93 0.95
0.05 0.03 0.04 0.04 0.06 0.04 0.05 0.04 0.02 0.02 0.02 0.03 0.03 0.04 0.08 0.01 0.05 0.02 0.02 0.02 0.01 0.00 0.00 0.01 0.03 0.01 0.01 0.01 0.02 0.03 0.03 0.07 0.25 0.41 0.32 0.25 0.12 0.06 0.02 0.02 0.02 0.03 0.03 0.03 0.02 0.02 0.04 0.04 0.04 0.07 0.06 0.17 0.17 0.30 0.36 0.27 0.17 0.73 0.68 0.46 0.29 0.20 0.24 0.24 0.16 0.35 0.64 0.85 0.83 0.47 0.64 0.54 0.82 0.77 0.68 0.56 0.63 0.57 0.53 0.67 0.78 0.67 0.57 0.47 0.57 0.61 0.67
0.03 0.04 0.09 0.03 0.04 0.03 0.03 0.02 0.04 0.05 0.02 0.04 0.18 0.19 0.14 0.05 0.02 0.02 0.01 0.02 0.01 0.02 0.01 0.02 0.02 0.02 0.01 0.01 0.01 0.02 0.00 0.00 0.00 0.08 0.07 0.09 0.11 0.11 0.07 0.10 0.11 0.03 0.04 0.01 0.01 0.01 0.03 0.07 0.07 0.04 0.01 0.03 0.07 0.05 0.05 0.07 0.20 0.29 0.25 0.27 0.74 0.77 0.49 0.60 0.79 1.12 0.69 0.49 0.51 0.55 0.60 0.73 0.84 0.55 0.73 0.75 0.94 0.67 0.75 0.76 0.64 0.78 0.58 0.48 0.49 0.50 0.42
0.10 0.04 0.02 0.03 0.06 0.04 0.02 0.06 0.04 0.07 0.12 0.10 0.09 0.04 0.03 0.01 0.02 0.04 0.02 0.01 0.01 0.02 0.01 0.01 0.00 0.02 0.03 0.02 0.01 0.01 0.01 0.01 0.00 0.01 0.02 0.00 0.04 0.05 0.04 0.07 0.04 0.04 0.03 0.02 0.01 0.01 0.02 0.02 0.03 0.03 0.11 0.22 0.15 0.09 0.08 0.11 0.08 0.05 0.05 0.07 0.08 0.08 0.06 0.05 0.10 0.11 0.13 0.13 0.18 0.29 0.28 0.33 0.29 0.23 0.21 0.18 0.23 0.29 0.30 0.32 0.33 0.33 0.36 0.29 0.27 0.26 0.24
0.05 0.10 0.21 0.13 0.11 0.15 0.11 0.16 0.26 0.21 0.08 0.07 0.04 0.03 0.02 0.01 0.03 0.03 0.02 0.02 0.01 0.03 0.01 0.01 0.00 0.00 0.02 0.05 0.05 0.03 0.02 0.01 0.01 0.00 0.01 0.00 0.02 0.02 0.03 0.04 0.01 0.02 0.02 0.01 0.01 0.01 0.00 0.00 0.02 0.02 0.01 0.02 0.03 0.02 0.03 0.21 0.06 0.02 0.05 0.08 0.06 0.05 0.06 0.06 0.05 0.05 0.04 0.07 0.10 0.09 0.17 0.17 0.23 0.20 0.21 0.20 0.26 0.26 0.23 0.21 0.20 0.19 0.19 0.20 0.20 0.19 0.19
0.02 0.01 0.02 0.03 0.02 0.05 0.10 0.05 0.09 0.12 0.10 0.09 0.06 0.03 0.07 0.06 0.05 0.04 0.02 0.03 0.04 0.02 0.01 0.02 0.02 0.01 0.01 0.01 0.02 0.03 0.03 0.02 0.01 0.02 0.01 0.05 0.02 0.08 0.07 0.05 0.01 0.01 0.00 0.00 0.00 0.00 0.00 0.00 0.01 0.01 0.00 0.00 0.01 0.01 0.03 0.04 0.03 0.03 0.14 0.08 0.11 0.14 0.22 0.11 0.16 0.17 0.17 0.16 0.18 0.23 0.24 0.23 0.23 0.18 0.18 0.16 0.17 0.17 0.15 0.16 0.17 0.12 0.08 0.08 0.08 0.07 0.08
0.06 0.04 0.02 0.03 0.09 0.06 0.08 0.03 0.05 0.10 0.18 0.19 0.05 0.06 0.05 0.06 0.06 0.01 0.02 0.03 0.03 0.04 0.03 0.04 0.05 0.06 0.03 0.02 0.02 0.02 0.04 0.03 0.07 0.07 0.06 0.09 0.08 0.09 0.01 0.00 0.00 0.00 0.00 0.00 0.00 0.00 0.00 0.00 0.00 0.00 0.00 0.00 0.00 0.00 0.00 0.00 0.00 0.01 0.00 0.01 0.03 0.06 0.04 0.05 0.06 0.07 0.06 0.09 0.08 0.14 0.16 0.20 0.24 0.21 0.20 0.19 0.15 0.13 0.14 0.13 0.10 0.08 0.05 0.05 0.04 0.04 0.05
0.05 0.06 0.09 0.06 0.04 0.06 0.06 0.06 0.10 0.03 0.03 0.05 0.04 0.02 0.03 0.03 0.02 0.03 0.04 0.07 0.07 0.09 0.08 0.08 0.09 0.12 0.22 0.10 0.12 0.09 0.08 0.10 0.06 0.07 0.11 0.18 0.13 0.04 0.01 0.01 0.01 0.01 0.00 0.00 0.00 0.00 0.00 0.00 0.00 0.00 0.00 0.00 0.00 0.00 0.00 0.00 0.00 0.00 0.00 0.01 0.03 0.00 0.05 0.04 0.02 0.02 0.02 0.03 0.03 0.07 0.02 0.04 0.08 0.07 0.06 0.06 0.05 0.04 0.04 0.03 0.03 0.05 0.06 0.06 0.05 0.05 0.06
0.08 0.14 0.09 0.12 0.21 0.20 0.16 0.17 0.34 0.11 0.63 0.13 0.09 0.10 0.06 0.04 0.04 0.03 0.06 0.04 0.03 0.06 0.08 0.09 0.10 0.08 0.10 0.09 0.09 0.09 0.11 0.08 0.12 0.05 0.07 0.09 0.09 0.04 0.01 0.01 0.00 0.00 0.00 0.00 0.00 0.00 0.00 0.00 0.00 0.00 0.00 0.00 0.00 0.00 0.00 0.00 0.00 0.00 0.00 0.01 0.00 0.00 0.01 0.00 0.02 0.03 0.04 0.02 0.03 0.02 0.04 0.06 0.11 0.11 0.09 0.08 0.06 0.05 0.03 0.02 0.02 0.02 0.02 0.03 0.04 0.03 0.03
0.02 0.01 0.00 0.01 0.04 0.07 0.10 0.12 0.17 0.17 0.06 0.12 0.11 0.10 0.05 0.03 0.04 0.03 0.02 0.03 0.03 0.03 0.03 0.03 0.03 0.04 0.05 0.05 0.06 0.04 0.12 0.07 0.15 0.09 0.03 0.04 0.04 0.02 0.01 0.00 0.01 0.00 0.00 0.00 0.00 0.00 0.00 0.00 0.00 0.00 0.00 0.00 0.00 0.00 0.00 0.00 0.00 0.00 0.00 0.00 0.00 0.00 0.01 0.00 0.01 0.02 0.02 0.01 0.01 0.00 0.01 0.03 0.03 0.05 0.11 0.15 0.17 0.17 0.18 0.14 0.09 0.08 0.07 0.05 0.04 0.03 0.02
0.01 0.01 0.03 0.04 0.02 0.03 0.07 0.17 0.42 0.41 0.34 0.27 0.15 0.21 0.21 0.14 0.18 0.08 0.14 0.13 0.11 0.13 0.10 0.16 0.12 0.10 0.12 0.10 0.12 0.18 0.13 0.12 0.13 0.13 0.09 0.04 0.04 0.04 0.01 0.01 0.01 0.00 0.00 0.00 0.00 0.00 0.00 0.00 0.00 0.00 0.00 0.00 0.00 0.00 0.00 0.00 0.00 0.00 0.00 0.00 0.00 0.00 0.00 0.01 0.03 0.02 0.01 0.01 0.00 0.01 0.01 0.01 0.01 0.01 0.01 0.02 0.02 0.02 0.01 0.02 0.02 0.02 0.02 0.02 0.02 0.01 0.01
0.14 0.32 0.04 0.07 0.36 0.25 0.11 0.14 0.17 0.07 0.11 0.25 0.22 0.19 0.19 0.18 0.20 0.19 0.13 0.15 0.12 0.08 0.12 0.13 0.11 0.12 0.10 0.11 0.10 0.10 0.10 0.11 0.10 0.12 0.11 0.10 0.08 0.05 0.04 0.03 0.02 0.01 0.01 0.00 0.01 0.00 0.00 0.00 0.00 0.00 0.00 0.00 0.00 0.01 0.00 0.00 0.00 0.00 0.00 0.00 0.00 0.01 0.02 0.02 0.02 0.02 0.02 0.01 0.01 0.01 0.01 0.00 0.01 0.00 0.00 0.00 0.01 0.00 0.01 0.01 0.01 0.02 0.02 0.02 0.03 0.02 0.01
1.26 0.68 0.56 0.30 0.36 0.41 0.18 0.16 0.14 0.24 0.23 0.42 0.28 0.21 0.16 0.25 0.18 0.17 0.23 0.24 0.28 0.20 0.27 0.26 0.21 0.18 0.24 0.18 0.15 0.16 0.17 0.17 0.12 0.10 0.10 0.09 0.07 0.06 0.06 0.05 0.04 0.03 0.02 0.01 0.00 0.00 0.00 0.00 0.00 0.00 0.00 0.00 0.00 0.00 0.00 0.00 0.00 0.00 0.00 0.00 0.00 0.00 0.00 0.00 0.01 0.03 0.05 0.07 0.08 0.08 0.09 0.06 0.05 0.05 0.03 0.02 0.03 0.03 0.05 0.06 0.07 0.08 0.08 0.08 0.09 0.13 0.11
0.42 0.79 0.28 0.32 0.21 0.31 0.13 0.10 0.10 0.35 0.15 0.17 0.14 0.25 0.33 0.31 0.25 0.25 0.21 0.17 0.17 0.25 0.19 0.19 0.22 0.20 0.15 0.17 0.18 0.23 0.18 0.16 0.10 0.09 0.08 0.07 0.07 0.07 0.07 0.06 0.05 0.04 0.04 0.02 0.01 0.01 0.01 0.00 0.00 0.00 0.00 0.00 0.00 0.00 0.00 0.00 0.00 0.00 0.00 0.00 0.00 0.00 0.00 0.00 0.00 0.00 0.01 0.01 0.01 0.02 0.03 0.05 0.06 0.05 0.06 0.08 0.09 0.09 0.08 0.08 0.08 0.08 0.09 0.10 0.12 0.16 0.16